GFSSGP_sfc_dewp_060.txt.gz
Dewpoint
58 48 40 44 37 32 23 23 21 24 25 27 30 31 32 41 42 49 60 61 61 61 64 67 70 70 70 70 70 70 68 66 65 65 64 64 64 65 65 67 69 68 66 65 64 65 64 63 62
44 37 42 40 31 25 19 20 21 26 30 29 32 33 33 42 51 57 60 62 61 62 64 65 69 71 70 70 70 69 68 65 64 63 63 63 64 65 65 67 68 67 65 64 64 64 63 62 63
46 35 38 37 27 20 21 19 24 31 30 30 32 36 36 44 54 58 61 62 62 63 65 66 70 71 70 69 70 70 68 67 66 64 62 62 63 64 65 67 67 65 64 64 63 62 62 62 62
38 38 31 27 24 21 17 17 28 29 27 30 30 35 42 49 55 59 61 62 61 63 66 69 71 71 71 70 70 70 68 67 65 65 62 62 62 63 64 65 65 63 63 62 62 62 62 62 62
37 37 32 27 24 22 18 19 25 28 26 27 30 33 44 51 55 61 60 61 61 63 67 69 70 71 71 71 70 70 69 68 66 65 63 61 62 62 64 64 63 62 61 61 61 61 62 62 62
34 32 28 25 21 21 19 20 22 21 20 29 27 28 42 51 55 59 60 60 61 64 66 68 68 69 70 70 70 69 69 69 67 65 63 61 61 61 62 62 60 59 60 60 60 61 62 61 60
37 37 27 24 18 22 20 20 22 21 19 25 28 26 44 49 55 59 60 59 60 63 64 65 67 67 67 68 68 69 69 69 68 67 65 64 63 62 62 61 58 58 58 59 60 61 61 60 60
32 31 26 21 19 22 22 22 23 22 22 29 32 27 38 47 53 58 58 58 60 62 65 65 66 67 68 67 66 66 67 68 67 66 65 64 63 63 62 61 59 57 57 59 60 60 59 60 59
32 25 22 21 20 20 22 22 23 24 23 27 33 31 42 48 56 57 57 57 58 61 64 64 65 65 65 66 65 65 65 66 65 64 62 60 59 57 58 59 59 57 57 58 60 59 58 57 58
28 27 23 20 18 19 21 20 21 20 21 22 29 36 46 51 56 60 59 56 57 60 62 64 64 64 64 64 66 67 67 66 65 64 61 60 58 59 57 58 59 58 58 58 58 57 57 55 52
27 25 19 18 25 22 22 19 20 19 19 20 23 32 46 51 53 60 60 59 59 60 62 63 63 63 64 64 66 65 66 66 65 64 62 63 59 56 56 55 55 54 54 52 52 54 52 51 51
22 21 19 29 31 26 23 23 20 20 21 24 25 30 44 50 51 55 59 59 60 62 62 64 64 64 64 64 65 65 65 65 65 65 63 64 60 58 55 53 53 51 51 49 51 51 50 49 48
20 19 22 27 28 26 26 23 22 22 22 24 25 28 36 47 48 51 54 57 57 61 62 63 64 64 64 64 65 64 65 65 65 65 64 65 62 60 56 55 52 52 52 51 51 49 47 46 45
25 23 23 27 26 26 26 23 24 23 24 22 25 25 28 35 44 47 50 55 56 57 61 62 63 64 64 65 64 64 64 65 65 65 65 65 64 62 60 56 54 52 51 51 50 49 45 43 43
27 23 22 22 24 26 28 24 21 22 24 23 22 24 25 28 33 41 47 50 55 56 58 61 62 62 62 62 63 62 63 63 64 65 65 65 64 62 60 56 54 52 52 51 50 47 42 39 37
24 22 20 20 24 28 27 15 18 20 18 22 22 21 23 25 28 32 42 48 51 55 57 60 61 61 61 60 61 61 61 62 62 62 64 64 64 63 60 57 54 54 51 48 45 43 40 37 32
21 13 13 23 24 26 26 22 26 24 22 20 20 20 20 23 25 28 34 45 50 53 57 58 60 60 60 61 60 60 60 60 61 61 62 64 64 63 61 58 56 52 50 46 42 39 37 35 31
17 16 13 16 23 26 24 24 23 24 25 25 24 23 22 22 23 27 32 39 48 51 55 57 59 60 60 60 59 59 59 60 60 59 59 63 64 63 61 59 55 52 50 46 41 38 37 34 29
18 15 15 16 24 25 23 22 20 19 19 21 22 23 22 22 25 26 29 35 42 48 52 56 58 57 56 57 56 55 56 57 59 60 60 61 64 63 62 59 54 52 49 46 41 38 34 33 28
22 19 16 17 25 24 22 20 20 20 20 21 21 21 21 22 23 26 29 32 40 44 49 52 55 55 55 55 55 53 52 52 55 57 57 59 62 62 61 58 55 53 50 46 42 38 34 31 28
22 20 17 17 24 24 23 21 21 21 20 20 21 20 21 22 22 24 30 32 36 41 45 47 50 52 53 52 51 50 50 51 51 53 55 56 57 59 59 58 56 53 51 47 42 37 35 30 28
19 22 20 22 21 15 26 17 14 11 10 20 23 25 24 24 25 25 26 33 36 37 42 45 45 45 47 47 48 49 47 48 49 50 52 54 55 56 57 57 55 54 52 48 42 38 36 33 29
24 27 24 25 24 27 20 20 17 14 11 13 17 19 24 31 28 27 28 31 36 39 40 42 44 44 44 46 47 49 48 49 48 49 49 52 53 54 55 55 55 53 52 49 43 39 38 34 33
30 29 27 28 26 21 20 16 10 9 10 11 15 19 26 29 29 31 31 33 37 41 42 42 42 43 44 45 47 47 48 47 47 48 50 51 51 52 51 51 53 52 51 48 45 41 39 39 37
29 22 17 21 23 16 21 16 13 15 15 15 16 20 28 29 32 33 33 34 35 40 42 43 42 41 43 45 46 47 48 48 46 49 50 49 49 49 49 49 50 50 51 49 47 44 42 42 40
28 22 21 16 20 19 22 17 18 18 19 22 22 24 33 33 31 32 32 36 37 38 40 41 41 41 42 43 45 47 47 48 47 48 50 50 49 49 49 48 49 49 48 48 46 44 43 42 41
27 24 26 21 19 20 18 16 16 22 19 20 22 22 23 29 33 33 34 35 38 38 39 40 40 41 41 42 44 45 47 47 47 47 48 49 49 48 47 47 47 47 47 47 46 45 43 43 42
27 27 22 22 15 14 12 11 12 19 20 22 21 28 30 32 33 34 34 35 36 37 39 40 41 40 41 42 43 44 46 46 47 47 47 47 49 49 47 46 46 46 45 46 46 44 43 42 41
25 22 24 22 22 20 14 12 14 17 23 24 28 30 35 38 34 33 34 34 35 36 38 39 40 40 41 42 43 44 44 45 46 46 46 46 46 45 45 44 44 42 41 41 43 41 40 40 39
25 21 23 22 20 22 23 15 20 21 26 28 27 28 28 31 32 32 33 34 34 36 38 39 40 40 41 42 43 44 44 44 45 45 45 44 44 42 40 39 37 35 35 37 40 38 39 38 35

GFSSGP_sfc_dewp_063.txt.gz
Dewpoint
53 44 48 40 31 27 22 20 22 23 25 28 31 31 42 44 48 43 59 60 62 63 65 68 70 71 69 70 70 68 68 66 65 65 65 65 66 67 69 68 68 65 64 64 64 63 63 63 65
51 41 38 36 27 19 18 19 25 29 27 31 33 34 39 47 54 58 58 61 62 63 65 68 69 71 70 70 69 68 67 65 64 63 64 65 65 67 68 67 68 64 64 63 63 62 63 63 65
50 38 30 34 24 17 16 24 29 29 29 30 33 35 41 49 58 59 61 61 62 63 64 67 70 70 70 70 69 69 68 66 64 63 63 64 65 67 67 66 65 63 63 63 63 63 63 64 64
36 36 28 22 20 17 16 29 29 26 27 29 32 38 45 49 58 60 62 62 63 64 65 68 70 70 70 70 70 69 68 66 64 63 63 64 64 67 66 65 63 63 62 62 62 63 63 63 64
34 33 27 27 22 17 18 29 29 26 26 27 29 36 45 54 60 61 61 62 63 65 66 68 70 70 70 70 70 69 68 67 65 63 63 63 64 65 65 63 62 62 62 62 62 63 63 62 63
29 29 24 23 20 19 18 20 26 22 27 28 25 40 45 54 60 60 61 61 66 66 67 68 68 69 70 69 69 69 69 68 66 63 62 63 63 63 63 62 61 61 61 61 62 62 61 62 63
31 31 26 28 18 19 18 20 22 19 26 27 27 37 48 53 58 60 60 61 65 66 67 68 68 68 67 68 68 69 69 68 67 65 64 64 64 64 62 61 60 60 61 61 62 61 61 62 62
29 27 22 21 17 21 21 22 23 19 25 29 31 33 45 49 57 59 60 61 64 64 66 66 67 68 68 67 66 66 67 67 67 65 63 63 63 63 62 60 60 60 60 61 61 60 60 61 61
25 20 18 20 17 20 22 21 21 24 25 27 32 37 41 50 58 58 58 59 62 64 64 66 66 66 67 67 65 65 65 65 64 63 61 59 59 58 57 59 60 60 60 60 60 59 58 58 60
24 18 18 19 19 20 21 21 20 19 21 25 31 40 49 56 57 56 56 57 60 63 64 65 66 65 65 66 65 66 66 65 63 62 59 58 57 58 57 57 59 60 60 60 58 58 57 54 52
24 21 19 24 26 24 22 19 20 18 19 20 27 41 51 54 58 57 58 56 58 61 63 64 64 64 64 65 66 66 66 65 64 61 60 59 58 57 56 55 55 55 55 55 56 53 51 50 50
19 20 19 29 31 25 23 23 20 19 19 24 25 44 50 52 58 58 58 59 59 61 61 63 64 64 64 66 65 66 66 65 64 63 61 60 57 56 55 54 53 52 51 49 51 50 49 48 48
17 19 22 28 27 25 26 24 22 21 22 23 31 42 49 51 54 59 59 59 59 60 61 62 63 63 64 65 65 65 65 65 65 64 61 62 57 56 54 53 52 50 49 51 50 48 47 46 46
25 24 22 26 26 26 24 23 24 22 24 23 26 35 45 49 50 52 58 59 59 61 61 62 63 64 64 64 65 64 65 65 65 64 63 64 59 57 54 53 51 51 50 51 50 47 45 45 44
25 19 21 23 24 25 26 13 19 22 24 22 23 24 32 41 47 49 51 57 58 58 62 62 63 64 64 63 64 64 64 64 65 65 64 64 61 61 56 54 51 51 52 51 49 45 43 41 39
21 19 17 21 25 27 18 7 14 19 21 21 21 22 24 26 35 44 48 51 56 57 60 62 62 63 62 62 63 63 63 62 64 65 65 64 63 62 58 55 53 53 52 50 48 42 40 37 34
23 10 13 21 23 26 23 15 23 24 20 19 20 22 22 22 25 31 40 47 51 56 57 61 62 62 62 61 61 62 62 62 62 62 64 64 64 62 59 56 54 52 51 48 45 41 38 34 31
16 15 14 13 22 24 24 23 24 25 24 23 21 22 21 20 22 25 31 41 48 53 56 60 61 61 61 62 60 59 60 60 61 61 61 63 64 62 61 58 54 52 49 46 44 40 38 33 29
16 16 15 21 24 22 22 22 23 23 21 21 24 24 24 24 24 24 28 34 46 50 56 58 60 60 60 60 60 58 58 57 58 59 59 62 63 62 61 58 54 51 49 45 42 39 35 31 28
20 18 16 21 25 21 19 19 20 21 20 19 18 21 23 23 23 24 26 32 40 48 52 57 59 59 60 60 60 60 56 54 56 57 58 58 62 62 61 59 55 52 49 46 42 39 35 33 27
20 18 17 17 22 20 24 17 17 19 23 22 21 22 22 22 22 23 24 29 36 43 49 53 57 58 59 58 55 51 52 50 52 53 56 56 57 61 61 59 56 53 51 46 42 39 37 33 29
18 23 21 21 18 12 23 12 19 13 9 11 16 21 22 23 23 23 23 30 33 38 44 50 54 56 56 54 54 53 54 53 53 53 53 54 54 56 60 58 56 54 52 48 44 40 39 36 31
20 26 22 24 23 25 24 16 17 18 11 11 12 17 22 28 25 25 26 30 33 37 42 46 47 50 53 53 52 52 51 49 47 48 50 50 51 53 54 57 56 54 53 51 47 43 41 39 36
29 27 26 28 24 17 20 14 11 7 8 11 15 22 27 32 30 29 32 33 37 38 40 43 45 45 45 48 47 49 49 47 47 46 48 48 49 49 51 54 55 55 54 52 48 44 42 40 39
26 18 13 16 21 14 20 16 12 13 15 14 14 18 35 36 31 31 37 31 36 40 40 41 42 43 44 45 46 47 48 48 47 47 48 47 48 48 51 52 54 54 54 53 49 46 43 42 40
26 18 16 11 18 15 20 16 14 19 18 20 21 23 27 29 28 30 31 33 34 37 40 42 42 41 42 44 45 47 47 48 48 47 49 49 49 49 49 50 52 53 52 52 49 46 45 43 43
25 24 24 20 16 18 16 17 15 20 17 18 17 22 30 31 32 32 33 36 37 37 38 40 40 41 41 42 44 45 47 47 47 47 47 49 49 49 48 49 50 50 50 50 49 47 45 44 43
25 26 21 23 11 11 12 11 14 15 13 14 25 29 30 32 33 33 35 35 36 38 38 40 40 40 41 41 42 43 45 46 47 47 47 47 48 47 46 48 49 49 49 48 47 46 45 44 44
24 22 23 22 23 16 13 11 14 13 19 25 29 30 31 31 32 33 33 34 35 36 38 39 40 40 40 41 42 42 43 45 46 46 47 46 45 47 46 45 46 47 46 46 46 46 45 43 43
24 22 24 21 18 21 21 14 21 26 27 27 26 28 30 31 32 32 33 33 33 35 36 38 38 40 40 41 41 42 43 44 44 45 45 44 45 44 45 44 43 44 45 44 45 44 44 42 41

GFSSGP_sfc_dewp_069.txt.gz
Dewpoint
49 41 40 38 29 24 23 21 24 24 25 29 33 35 34 43 34 26 58 61 62 63 67 68 70 70 69 70 69 69 68 66 66 67 68 69 68 67 65 65 64 63 63 64 64 64 65 65 64
45 37 37 33 24 18 18 24 23 25 27 43 40 41 45 46 56 56 57 61 61 64 67 68 69 70 69 69 69 68 66 65 66 66 68 69 68 66 65 64 63 63 63 64 65 65 65 64 63
42 33 30 29 20 17 18 23 25 28 31 31 35 43 47 51 56 56 58 62 62 65 67 68 70 70 69 69 68 67 67 65 65 66 68 68 67 66 64 63 63 62 63 64 64 64 64 63 63
35 34 30 16 15 18 18 24 28 27 28 32 39 42 48 56 57 57 61 62 62 65 67 68 70 70 69 68 66 65 65 65 65 65 67 68 67 65 64 63 62 62 63 62 63 63 63 64 63
33 30 25 24 21 19 29 29 28 26 27 31 37 41 48 56 60 61 61 62 62 64 66 68 70 70 69 69 67 66 65 64 65 65 66 67 66 64 63 62 62 62 63 62 64 64 65 64 64
30 27 22 22 22 20 28 29 26 24 26 29 43 47 51 57 60 60 61 62 63 64 67 68 67 68 69 69 69 68 67 66 65 65 66 66 64 63 63 62 62 62 62 62 64 65 65 65 65
29 27 22 27 18 20 20 27 22 25 27 27 43 43 46 54 60 61 62 63 64 65 67 67 67 67 67 67 67 68 67 66 66 66 66 66 65 64 63 63 62 61 62 62 63 63 63 63 62
30 26 23 28 18 18 19 23 23 26 26 30 44 42 47 55 60 62 64 64 65 66 66 66 66 67 67 67 65 65 66 65 65 65 64 64 63 63 63 62 62 61 62 62 63 62 62 62 61
25 20 19 16 17 20 20 21 22 25 26 33 32 44 45 57 60 60 61 62 64 65 65 66 66 66 66 66 64 64 64 64 63 62 61 60 59 58 58 60 62 62 62 62 62 62 62 61 60
21 19 17 17 18 20 21 20 21 27 25 35 37 45 50 57 59 59 58 60 62 63 63 65 65 66 66 67 65 64 64 63 61 60 59 58 56 56 57 58 61 62 62 61 60 60 58 55 54
23 13 15 21 22 22 22 20 21 21 28 23 27 41 53 55 57 58 57 59 61 62 63 64 65 65 65 66 66 65 64 62 60 59 58 57 56 56 56 57 58 57 57 56 55 54 52 53 52
19 21 18 26 27 22 20 21 19 18 18 21 27 45 53 56 57 58 57 58 59 60 62 63 64 65 65 65 66 66 65 62 60 58 57 57 56 55 54 55 55 55 54 52 51 51 51 51 51
18 18 25 27 25 23 24 21 20 20 20 25 28 49 53 56 57 58 58 57 59 60 61 63 64 64 65 64 65 64 64 64 61 59 58 57 56 54 54 53 54 54 53 51 50 49 49 50 50
17 21 24 26 23 24 21 20 30 18 23 22 39 47 51 55 56 55 56 57 57 60 61 62 63 64 64 64 64 64 63 64 62 59 59 57 56 55 53 53 53 53 52 50 49 48 48 49 49
20 15 19 22 24 23 23 11 19 20 19 23 29 44 49 52 54 55 57 57 58 59 61 61 63 63 63 63 64 64 64 63 63 61 59 58 57 55 54 53 53 52 51 51 49 48 46 46 47
17 14 5 11 24 25 11 -3 5 21 23 17 22 27 39 47 50 53 56 57 58 58 60 61 62 62 63 63 64 63 64 65 64 64 61 60 58 57 55 53 52 51 51 51 49 47 45 44 44
17 2 12 10 24 25 18 11 13 23 22 21 20 21 23 27 35 46 51 55 57 58 59 60 61 62 62 63 63 63 63 63 64 64 64 61 60 58 56 54 53 52 51 51 47 45 44 42 39
13 15 14 12 19 23 23 20 21 22 23 21 21 21 21 21 23 27 39 50 54 57 58 60 61 62 62 63 62 61 61 62 63 64 64 63 62 60 57 56 54 52 51 50 48 45 40 40 37
13 13 12 18 23 22 20 21 21 21 21 21 21 21 21 22 23 23 25 33 49 53 56 57 60 61 62 62 61 61 61 61 61 62 62 64 63 61 59 58 55 53 51 50 48 44 40 34 31
16 15 19 19 24 22 20 19 20 20 20 19 18 17 18 20 22 24 25 25 36 46 53 56 58 60 61 62 62 62 62 61 60 59 60 62 63 63 61 59 56 54 52 50 47 43 39 35 32
16 15 15 12 20 18 15 9 8 11 20 20 19 21 20 20 21 21 22 24 27 36 48 54 56 59 60 61 59 54 54 52 54 54 57 58 62 63 62 61 57 55 53 51 48 44 42 38 32
17 19 18 19 14 8 18 3 12 14 16 14 12 10 12 14 20 23 23 23 24 29 39 49 55 58 59 60 59 58 59 58 58 58 55 56 57 60 62 61 59 57 55 53 49 47 45 44 36
18 23 20 21 20 22 19 11 11 13 11 9 10 19 26 28 28 30 31 28 29 30 35 48 53 56 57 59 59 58 57 57 54 52 53 53 53 58 61 61 60 58 56 55 51 48 46 45 43
27 22 22 26 18 11 16 10 5 4 6 22 18 23 26 26 27 28 30 32 35 37 41 46 51 53 54 55 55 56 57 53 50 49 50 50 50 52 56 59 59 58 56 55 52 49 47 46 45
19 12 9 8 15 9 18 15 12 12 14 13 14 19 25 30 31 32 33 32 34 38 39 43 47 48 51 53 53 54 55 52 51 50 50 47 48 48 51 55 57 57 56 55 54 50 49 47 47
19 13 12 4 9 8 19 16 12 18 19 20 23 31 32 31 32 34 35 35 35 36 40 40 41 43 45 48 49 49 50 51 52 50 50 49 49 50 49 50 54 56 56 55 54 52 50 49 47
23 16 16 17 12 16 12 13 11 17 17 27 29 30 30 31 33 34 35 36 36 36 37 38 40 40 41 42 44 45 46 47 48 47 47 48 47 47 47 47 48 50 53 54 54 53 51 50 48
23 25 19 19 5 5 7 10 7 11 24 27 27 29 29 30 31 32 33 34 35 36 37 37 38 38 38 40 41 42 43 44 46 46 46 46 46 46 45 45 46 46 47 48 50 51 51 50 49
23 22 21 20 17 11 9 7 12 15 26 26 26 27 29 30 31 31 32 32 33 34 35 36 37 37 38 39 39 40 41 42 43 44 45 45 45 44 45 45 45 46 46 46 48 49 49 48 48
27 22 21 18 16 20 18 14 22 26 27 27 27 27 29 35 31 31 32 32 32 33 33 34 35 36 37 38 39 39 40 41 41 42 43 43 44 43 44 44 44 45 46 47 47 48 47 47 46

GFSSGP_sfc_dewp_072.txt.gz
Dewpoint
48 39 40 36 27 23 22 23 32 24 25 29 33 35 40 44 39 24 57 61 63 64 67 68 70 69 69 69 69 68 68 67 68 69 69 68 67 66 65 64 64 64 64 63 64 65 64 63 63
43 36 37 31 25 18 17 26 23 25 31 45 39 42 44 44 55 55 58 61 63 66 67 68 69 70 70 69 69 68 67 67 68 69 69 68 66 65 64 63 63 64 64 64 65 66 64 63 63
41 32 30 27 20 19 18 21 23 27 40 31 41 45 47 48 54 57 58 61 64 66 68 68 69 70 69 69 68 67 66 66 67 69 69 67 66 65 64 63 63 64 64 62 65 65 64 63 63
35 33 29 17 15 19 22 23 27 28 28 32 43 42 48 54 56 57 61 62 64 66 67 68 70 69 68 68 67 65 65 65 66 68 68 66 65 64 63 63 62 64 62 62 63 64 63 63 63
32 29 24 23 24 19 27 28 28 30 35 39 41 41 47 55 59 61 61 61 64 65 67 68 70 69 69 68 66 66 66 65 65 67 68 66 64 63 63 62 62 62 63 62 63 64 64 64 64
29 26 22 21 22 20 33 29 26 24 26 36 43 47 50 56 59 60 62 61 64 65 67 68 67 68 68 68 67 67 67 67 66 67 67 65 63 63 62 62 62 62 62 62 65 65 65 65 65
27 25 21 25 22 24 26 28 23 24 26 28 45 44 45 53 59 61 61 62 63 65 66 67 68 67 66 67 67 67 66 67 67 67 67 65 65 64 63 63 62 62 61 62 64 64 64 64 63
29 27 24 27 17 16 20 27 23 27 25 35 45 38 44 54 60 61 62 62 63 65 66 66 66 67 66 66 64 65 65 66 66 66 65 64 63 64 63 62 63 62 61 63 63 63 63 62 62
25 20 20 17 17 21 21 21 22 25 27 32 34 43 45 58 60 61 60 62 63 64 64 65 65 66 65 65 63 63 63 64 64 63 61 60 59 59 59 60 62 63 62 62 63 63 62 61 61
21 19 18 17 18 19 20 21 21 29 32 34 36 43 50 58 60 60 60 60 62 62 64 65 65 65 65 66 64 64 63 62 61 60 59 58 57 57 58 59 61 62 62 62 62 61 58 56 54
20 15 16 20 21 21 21 20 21 25 28 24 27 37 53 56 58 59 60 61 61 62 63 64 65 65 66 66 65 63 62 61 59 59 58 56 55 56 57 58 58 58 57 57 57 54 54 53 53
17 20 18 25 25 21 21 20 20 21 26 21 25 42 54 57 58 59 58 58 60 61 62 63 64 65 65 65 64 65 64 60 59 58 57 56 55 54 55 56 55 55 54 51 51 52 51 52 52
17 18 24 26 23 22 23 21 20 22 20 24 27 49 54 57 58 58 58 57 58 60 61 62 63 64 64 64 64 64 64 62 59 58 57 56 55 54 54 54 54 54 53 51 50 50 51 50 50
18 20 24 24 23 24 21 19 32 28 27 21 35 44 51 55 56 54 56 57 58 60 60 61 63 63 64 64 64 63 63 64 60 58 57 56 55 54 53 53 53 53 52 51 50 49 50 50 49
20 15 17 21 23 23 23 11 20 22 19 22 23 38 47 51 53 56 57 58 58 59 60 61 62 63 64 64 63 63 63 63 63 60 58 57 56 54 53 52 53 53 53 51 50 49 48 48 48
16 11 7 9 23 24 10 -2 3 20 28 16 19 23 33 46 51 54 55 56 57 57 59 61 62 62 62 63 63 63 63 62 62 62 59 58 57 56 55 53 53 53 52 51 49 48 46 47 47
15 2 8 6 23 24 15 8 13 23 22 25 22 19 22 27 37 47 52 55 56 57 58 60 61 62 62 62 63 63 63 63 62 62 61 59 58 57 56 54 54 52 51 51 49 46 46 44 43
9 13 13 13 18 27 26 19 20 21 22 21 20 20 20 21 23 27 42 50 55 56 58 59 60 61 62 62 61 61 60 63 63 63 63 60 59 58 57 56 54 52 51 51 49 46 43 43 42
11 9 15 24 23 21 20 20 21 21 21 21 20 20 21 21 22 23 24 36 50 53 56 58 59 60 61 62 62 62 62 62 61 62 62 63 61 60 58 57 55 53 51 50 49 46 42 38 35
15 13 16 18 23 25 21 19 20 20 20 19 18 18 18 18 19 21 24 24 37 47 54 56 58 59 61 62 62 61 61 61 61 61 61 63 63 62 59 58 56 54 53 51 49 46 42 39 36
16 13 14 11 18 18 13 6 6 9 16 17 17 18 17 16 16 19 21 23 25 33 47 53 56 58 60 61 58 55 56 55 57 57 59 61 63 63 61 60 58 56 55 53 50 48 46 42 36
12 17 16 19 14 9 19 -0 9 12 14 13 12 18 24 27 28 30 28 27 23 26 32 48 53 55 58 59 59 59 60 59 59 59 57 57 59 62 62 61 60 57 56 55 52 50 48 48 40
16 22 20 19 20 21 17 9 8 9 7 10 22 24 26 26 27 29 30 34 36 36 31 39 48 53 56 59 59 58 57 57 54 53 54 54 54 58 60 62 61 58 57 56 54 50 49 48 46
27 20 20 23 17 9 14 9 3 2 4 10 14 18 25 30 31 32 33 33 36 38 42 44 48 51 54 56 56 56 56 55 51 50 51 51 51 52 54 59 60 60 58 57 56 52 50 49 48
17 11 9 8 13 7 17 14 9 10 13 13 18 23 30 31 32 33 34 34 35 38 39 44 48 49 51 53 53 53 54 53 52 51 51 49 49 49 50 54 58 59 58 57 56 53 51 50 49
16 12 11 3 7 6 20 14 10 17 19 20 28 32 30 32 34 35 35 35 35 36 38 39 41 43 46 49 50 50 51 51 51 51 50 49 49 49 49 49 53 56 58 56 55 54 52 51 49
21 13 15 17 11 14 11 12 9 19 27 28 28 29 30 31 33 33 34 34 35 36 37 37 38 38 39 41 42 43 45 46 48 48 47 48 47 47 47 47 48 49 52 55 55 54 52 50 49
23 22 17 17 4 4 4 9 4 19 26 26 27 28 29 30 31 31 32 32 33 34 35 36 37 37 38 38 39 40 41 42 43 44 44 45 45 45 45 45 45 46 46 49 52 52 52 51 50
22 20 20 18 16 10 6 5 12 25 25 25 26 29 29 30 31 32 32 33 33 34 34 34 35 36 37 37 38 38 39 40 41 41 42 42 43 43 43 44 44 44 44 44 46 48 49 49 49
26 21 19 15 14 17 16 10 23 25 26 27 26 27 29 30 30 32 34 35 35 35 36 36 37 37 37 37 37 38 38 39 39 40 40 41 41 42 42 42 42 43 44 44 44 46 47 47 47

GFSSGP_sfc_dewp_075.txt.gz
Dewpoint
48 40 42 38 31 28 24 27 27 27 26 30 40 44 45 44 42 28 59 62 64 66 67 69 69 69 70 69 69 69 69 69 70 70 68 67 66 65 64 65 66 65 63 65 64 63 64 63 63
40 35 39 34 29 21 19 22 26 27 33 44 40 43 43 45 56 57 59 61 65 66 67 68 69 70 70 70 69 68 68 69 70 69 68 67 65 65 64 64 66 65 65 66 64 63 62 62 62
38 32 33 29 25 24 20 22 26 30 44 34 42 45 46 50 57 58 59 62 65 66 68 68 69 70 70 69 69 68 68 69 70 69 68 66 65 64 63 64 66 64 65 65 64 63 62 62 63
36 35 31 24 26 24 23 24 27 33 33 33 42 43 50 55 56 58 61 63 65 67 68 69 70 70 69 68 67 67 67 68 69 68 67 65 63 63 63 64 63 63 63 64 63 63 63 63 63
33 32 28 26 28 25 23 28 29 29 30 36 38 41 52 57 58 60 61 64 65 66 67 69 69 69 69 68 67 67 67 67 68 68 67 65 63 63 63 63 63 61 63 62 64 63 63 64 65
31 29 26 24 24 26 30 29 27 27 28 34 42 48 53 58 59 61 61 63 65 66 68 69 67 67 68 68 67 67 67 68 69 68 66 63 63 63 63 63 62 61 61 65 64 64 65 65 64
30 28 25 23 22 26 29 28 26 25 28 31 44 44 48 56 60 61 61 63 65 66 67 69 68 67 66 66 66 67 67 67 68 68 66 66 65 64 63 64 63 61 63 65 65 65 65 65 64
30 29 26 24 20 24 25 29 26 26 27 41 44 38 48 55 60 61 61 62 64 66 67 68 68 67 67 67 64 65 66 66 66 66 64 64 64 64 63 62 63 62 63 61 64 64 64 64 63
29 24 23 23 20 21 25 25 26 27 29 33 41 40 45 59 61 61 61 62 63 65 66 67 67 67 67 66 64 63 63 64 64 63 61 61 62 61 60 61 63 63 62 63 64 63 62 62 62
24 23 23 20 20 21 23 23 23 26 28 29 33 42 54 60 60 60 60 60 61 62 64 66 67 67 66 66 65 64 63 64 63 62 61 60 60 60 60 59 61 62 61 63 62 61 59 57 58
24 20 19 21 21 22 22 22 23 24 26 26 28 35 55 59 59 59 59 60 60 61 62 64 65 66 66 66 65 64 63 63 62 62 60 58 57 59 60 61 61 61 59 60 59 56 55 56 56
20 21 20 28 25 23 22 22 22 24 24 26 25 40 56 58 59 59 59 60 61 61 62 63 64 64 65 65 64 64 63 62 61 60 59 57 57 58 59 59 60 60 58 57 56 55 55 55 55
21 22 25 26 23 23 23 23 22 21 22 25 30 49 56 58 58 59 60 60 62 61 62 63 64 64 64 64 64 64 64 61 60 59 59 57 56 56 57 58 58 58 56 54 54 54 54 54 54
21 24 25 24 24 24 21 20 24 20 23 23 32 42 51 57 58 58 58 58 60 62 62 63 63 64 63 64 64 64 64 63 61 59 58 57 56 55 56 57 57 57 56 53 53 53 53 53 53
20 18 19 22 24 24 23 12 18 21 20 23 23 32 43 52 56 57 58 59 59 60 61 62 63 63 63 63 63 63 64 64 62 60 58 57 56 55 55 55 55 55 55 54 52 50 51 51 51
15 13 14 15 24 25 12 7 5 22 20 17 20 22 26 41 51 55 57 58 58 59 60 62 63 63 63 63 63 62 62 63 63 62 59 58 57 56 55 54 54 55 54 53 51 50 49 49 49
15 9 9 10 24 25 16 9 16 24 22 21 21 21 20 23 29 46 53 56 57 58 59 61 62 63 63 63 63 63 62 62 63 63 61 59 57 57 55 54 54 54 53 52 51 49 48 48 48
12 4 12 4 19 23 22 19 19 21 22 21 21 21 22 22 22 26 39 51 56 57 58 60 61 62 63 63 63 62 62 62 62 62 62 60 59 57 57 56 55 53 52 52 51 49 48 47 47
10 4 7 16 24 23 21 20 20 21 22 21 21 21 21 22 23 24 26 33 50 55 57 58 60 61 62 62 61 61 61 62 62 62 62 61 60 58 57 57 56 54 53 52 51 50 45 44 43
12 13 15 22 24 22 21 19 20 20 21 21 20 19 20 20 20 20 22 27 35 48 55 57 59 60 61 62 61 62 61 62 62 62 62 62 62 60 58 58 57 55 54 52 51 48 46 46 40
16 12 15 13 19 18 13 5 5 11 16 16 16 18 20 19 20 28 28 27 30 34 47 54 57 59 61 62 61 58 59 58 60 60 61 61 63 62 61 59 59 57 56 55 52 51 49 47 40
14 16 17 18 14 5 15 -3 9 12 11 18 25 26 27 28 29 30 33 35 36 33 32 47 54 57 60 61 61 60 60 59 60 60 60 61 61 63 62 61 59 58 56 56 55 52 52 50 45
14 20 20 19 20 17 16 8 7 8 7 18 19 23 27 30 31 33 33 36 38 41 39 36 47 54 57 60 61 60 60 60 58 58 58 58 58 60 62 62 61 59 58 57 57 53 51 51 51
26 19 18 22 16 9 15 8 3 2 7 13 16 24 31 32 33 34 35 37 39 41 45 48 48 52 55 58 58 59 59 57 56 55 56 55 55 56 57 59 60 60 59 58 57 55 52 52 51
18 12 10 11 13 7 16 14 8 10 13 16 18 29 31 34 35 35 35 36 37 39 41 45 49 51 54 56 56 56 57 56 56 55 55 54 54 53 54 54 57 59 59 58 57 56 54 52 52
16 11 12 4 8 7 20 13 10 17 22 22 29 30 33 33 34 35 35 36 37 38 39 39 40 41 45 49 51 52 53 54 54 54 53 53 52 52 52 52 53 56 57 58 57 57 54 53 52
19 12 15 17 11 13 12 13 10 26 27 28 29 31 31 31 32 32 33 34 35 36 37 38 38 38 39 40 41 41 43 44 46 47 48 49 49 49 49 49 49 50 51 54 55 55 54 52 52
19 20 15 16 5 4 2 8 6 23 26 27 28 29 30 31 32 33 34 34 35 35 36 37 37 37 38 39 39 39 40 41 42 42 43 44 45 45 46 46 46 47 48 49 51 52 53 53 52
20 18 18 16 15 10 6 4 12 21 26 27 28 29 30 31 32 34 35 36 36 37 37 37 37 36 36 37 38 39 39 39 40 40 41 41 42 42 43 44 44 45 45 46 47 48 50 50 50
23 19 17 14 13 15 14 7 21 26 26 27 27 29 30 31 34 35 36 36 36 36 36 36 36 36 36 36 36 37 36 37 37 37 38 40 40 41 41 41 42 43 44 45 45 45 46 47 47

GFSSGP_sfc_dewp_078.txt.gz
Dewpoint
46 40 41 39 27 28 24 27 33 30 28 31 46 42 40 42 35 34 60 61 63 63 64 68 69 70 68 69 69 70 69 70 69 69 68 66 65 65 65 65 66 66 64 63 64 64 64 63 63
34 34 39 36 28 17 17 26 33 29 31 40 40 42 39 41 54 57 59 62 62 63 65 64 69 70 70 69 69 68 69 70 69 68 67 65 64 64 64 65 66 67 66 64 62 64 62 61 62
35 31 29 34 30 17 16 25 31 34 38 35 38 44 43 46 55 57 59 62 63 64 65 66 70 70 70 69 69 69 69 70 69 67 66 65 64 64 65 65 64 66 65 64 64 61 64 63 62
35 33 29 26 23 21 20 22 28 38 33 33 41 39 51 55 55 57 60 62 62 64 65 68 70 70 69 69 68 67 69 70 69 67 65 64 64 63 64 65 64 64 65 62 62 63 63 63 64
34 33 27 25 21 20 20 26 31 34 30 33 37 36 47 56 57 58 60 62 62 64 66 66 69 69 69 68 67 67 69 69 68 67 65 64 64 63 64 64 63 63 64 63 63 63 64 65 64
28 31 25 21 20 24 27 28 30 27 28 36 36 39 47 58 56 58 59 61 62 64 66 66 66 67 68 68 68 68 68 69 69 67 64 64 63 63 64 62 61 62 65 64 63 64 65 64 64
28 29 26 23 21 24 26 28 25 25 28 32 41 35 48 57 58 59 59 61 62 64 65 66 64 64 66 66 67 67 68 69 68 67 66 66 65 65 64 64 62 64 66 65 66 65 65 64 63
31 30 26 21 20 21 28 27 25 24 26 39 43 31 40 55 59 59 59 61 62 64 65 66 65 62 63 64 64 65 66 67 67 66 64 64 64 64 63 63 63 62 63 65 64 65 65 64 63
29 26 25 23 20 20 28 25 26 26 29 38 42 37 50 59 59 59 58 60 61 63 64 65 65 64 63 63 62 63 64 64 64 63 62 61 60 59 58 61 62 62 61 63 64 63 63 63 62
26 25 26 23 20 21 26 25 25 25 26 29 35 43 57 60 58 57 56 57 60 61 63 64 66 65 64 62 63 62 63 63 62 62 61 59 59 58 57 60 61 61 62 63 62 61 59 59 58
24 21 22 19 20 22 25 22 24 23 24 24 26 36 56 59 57 57 56 56 58 60 62 64 66 66 64 63 63 62 62 62 62 62 61 59 58 59 58 60 60 59 59 59 59 57 56 57 57
20 18 20 26 26 23 24 23 22 24 23 24 27 33 53 57 56 55 56 56 58 60 62 64 65 65 65 64 64 62 61 62 61 61 61 59 57 58 58 57 59 60 59 59 58 56 57 56 56
21 20 24 24 24 23 23 22 20 21 23 23 28 41 50 55 56 56 56 58 59 60 61 63 64 64 64 64 64 63 63 61 60 61 61 58 56 57 57 58 57 57 57 56 56 55 55 56 55
22 25 24 22 22 23 21 20 22 20 22 23 28 35 45 53 56 58 58 58 60 61 61 63 63 64 64 64 64 64 63 63 61 60 60 59 56 56 57 57 57 56 55 53 54 54 53 54 55
23 21 21 21 22 22 22 15 15 18 19 21 24 29 40 50 56 57 58 59 60 62 63 63 64 64 63 63 63 64 64 63 63 61 60 59 58 56 55 56 56 56 55 55 54 54 53 53 53
16 18 16 15 22 24 14 11 3 21 16 16 20 22 26 39 51 55 57 58 59 61 62 63 63 64 63 63 63 63 63 64 63 62 61 60 58 57 56 55 55 56 56 54 53 52 51 52 52
15 10 13 6 22 22 15 12 12 22 21 17 17 19 21 21 28 45 55 58 59 59 60 61 63 64 63 63 63 63 63 63 63 63 62 61 60 58 56 55 55 56 55 54 53 52 52 51 50
16 8 10 5 19 22 20 15 15 19 21 21 21 21 23 22 21 23 32 51 56 59 60 60 61 63 64 63 63 63 63 63 63 63 62 61 61 60 58 57 56 55 54 54 53 52 51 50 50
12 8 7 12 23 22 19 19 17 18 21 20 20 20 21 22 22 23 26 29 45 55 58 59 60 62 63 62 62 62 61 62 63 63 63 62 61 62 60 58 57 56 55 55 54 52 51 50 49
10 8 13 23 23 22 21 19 20 20 20 21 20 19 20 20 19 22 26 25 29 41 53 57 59 60 62 62 62 62 61 62 62 63 63 63 62 62 60 58 58 57 56 55 55 54 52 50 48
14 9 16 13 20 18 15 8 9 11 15 15 22 22 22 26 29 30 30 29 30 32 43 51 56 58 60 61 61 61 61 61 62 62 62 62 62 62 62 60 59 58 57 56 56 54 52 54 51
12 16 19 20 15 6 17 -4 10 11 12 24 26 27 28 29 31 32 35 37 39 39 34 43 51 56 58 60 60 60 59 59 60 60 62 62 62 62 62 62 61 60 59 57 57 55 54 54 52
14 21 20 20 21 17 15 6 4 8 13 20 20 27 31 33 34 34 37 40 42 46 41 36 46 52 56 58 60 60 59 59 60 61 61 61 62 62 62 62 62 60 59 58 58 56 55 54 54
24 22 20 22 20 11 15 11 1 2 7 16 20 30 32 34 35 35 38 40 43 49 51 47 46 51 55 57 58 59 58 59 59 60 60 60 60 60 60 61 61 61 60 59 58 58 56 54 53
20 14 14 12 15 9 16 15 5 7 10 15 20 31 34 35 35 36 37 38 40 42 47 52 54 53 55 56 57 58 58 58 58 58 57 58 58 58 58 58 58 58 60 60 59 57 56 55 54
20 12 15 13 11 9 20 14 10 17 21 21 30 33 34 34 35 35 36 37 38 40 40 40 41 42 46 51 52 54 54 55 55 55 55 55 55 54 54 53 54 54 55 56 58 58 57 56 54
18 13 18 18 19 19 11 14 15 26 27 29 31 32 32 33 34 34 35 35 37 38 39 40 39 39 40 40 41 41 42 43 43 44 46 46 47 46 46 48 48 49 49 51 51 54 53 54 54
19 19 16 15 22 16 3 8 8 25 27 29 30 31 31 33 34 35 36 37 38 38 38 38 38 38 38 39 39 39 40 40 41 41 41 42 42 43 43 44 44 45 46 46 48 49 51 51 53
17 14 16 14 15 19 11 2 11 21 27 28 29 31 32 34 36 36 36 37 38 38 38 37 37 37 38 38 38 39 38 37 38 38 38 39 40 40 40 41 42 42 43 44 45 46 47 47 48
23 17 14 12 16 13 15 8 19 22 28 30 30 31 33 36 36 36 36 37 37 36 35 35 34 35 35 35 35 36 35 35 34 35 35 37 37 38 38 38 39 40 40 41 43 43 44 45 45